EW0954 Weather Reports


time (UTC)temp
F
wind
direction
speed
knots
gust
knots
rain 1hr
in
rain 24hr
in
rain mn
in
humidity
%
barometer
mb
20260902194515 58 0.0 0.0 0.00 0.00 0.00 79 1021.5
20260902193515 58 0.0 0.0 0.00 0.00 0.00 79 1021.7
20260902192536 59 0.0 1.7 0.00 0.00 0.00 78 1021.6
20260902191517 60 0.0 1.7 0.00 0.00 0.00 79 1021.4
20260902190518 60 0.0 1.7 0.00 0.00 0.00 77 1021.4
20260902185517 61 0.0 1.7 0.00 0.00 0.00 76 1021.3
20260902184517 62 0.0 0.0 0.00 0.00 0.00 73 1021.1
20260902183517 63 0.0 0.0 0.00 0.00 0.00 68 1021.1
20260902182517 64 0.0 0.0 0.00 0.00 0.00 66 1021.0
20260902181517 65 0.0 1.7 0.00 0.00 0.00 63 1020.9
20260902180517 66 0.0 0.0 0.00 0.00 0.00 61 1020.7
20260902175516 68 0.0 1.7 0.00 0.00 0.00 59 1020.8
20260902174537 68 270 1.7 3.5 0.00 0.00 0.00 55 1020.6
20260902173518 69 270 1.7 3.5 0.00 0.00 0.00 54 1020.7
20260902172557 70 270 3.5 7.0 0.00 0.00 0.00 53 1020.6
20260902171517 70 270 2.6 5.2 0.00 0.00 0.00 54 1020.5
20260902170517 71 270 3.5 7.0 0.00 0.00 0.00 53 1020.6
20260902165517 71 270 3.5 6.1 0.00 0.00 0.00 53 1020.6
20260902164517 71 270 3.5 7.0 0.00 0.00 0.00 52 1020.6
20260902163517 72 293 3.5 9.6 0.00 0.00 0.00 50 1020.5
20260902162517 72 270 1.7 6.1 0.00 0.00 0.00 49 1020.5
20260902161517 73 225 4.3 9.6 0.00 0.00 0.00 46 1020.6
20260902160517 74 270 6.1 12.2 0.00 0.00 0.00 47 1020.5
20260902155538 74 248 3.5 9.6 0.00 0.00 0.00 52 1020.5
20260902154522 73 293 4.3 6.1 0.00 0.00 0.00 54 1020.6
20260902152538 72 293 3.5 6.1 0.00 0.00 0.00 56 1020.7
20260902151517 72 293 2.6 7.8 0.00 0.00 0.00 56 1020.6
20260902150517 72 270 3.5 7.0 0.00 0.00 0.00 55 1020.6
20260902145537 72 293 4.3 9.6 0.00 0.00 0.00 55 1020.6
20260902144517 72 270 4.3 7.8 0.00 0.00 0.00 57 1020.8
20260902143517 73 293 5.2 10.4 0.00 0.00 0.00 56 1020.8
20260902142537 73 270 5.2 8.7 0.00 0.00 0.00 56 1020.9
20260902141518 72 270 4.3 9.6 0.00 0.00 0.00 58 1020.9
20260902140517 72 270 5.2 10.4 0.00 0.00 0.00 57 1020.8
20260902135522 72 270 5.2 10.4 0.00 0.00 0.00 60 1020.9
20260902134537 72 270 4.3 7.8 0.00 0.00 0.00 61 1020.8
20260902133516 72 270 5.2 8.7 0.00 0.00 0.00 61 1020.8
20260902132517 72 203 5.2 10.4 0.00 0.00 0.00 59 1020.7
20260902131517 72 225 4.3 9.6 0.00 0.00 0.00 58 1020.5
20260902130516 73 248 5.2 11.3 0.00 0.00 0.00 58 1020.7
20260902125516 73 203 6.1 11.3 0.00 0.00 0.00 56 1020.7
20260902124516 74 248 5.2 9.6 0.00 0.00 0.00 55 1020.7
20260902123522 74 248 3.5 8.7 0.00 0.00 0.00 57 1020.7
20260902122537 74 225 4.3 10.4 0.00 0.00 0.00 55 1020.7
20260902121517 74 225 6.1 9.6 0.00 0.00 0.00 56 1020.9
20260902120516 74 248 7.0 12.2 0.00 0.00 0.00 56 1020.8
20260902115516 73 270 6.1 12.2 0.00 0.00 0.00 57 1020.8
20260902114516 71 203 4.3 13.0 0.00 0.00 0.00 59 1020.9
20260902113516 71 270 7.0 11.3 0.00 0.00 0.00 61 1020.8
20260902112536 71 270 6.1 10.4 0.00 0.00 0.00 61 1020.8
20260902111536 72 270 5.2 7.8 0.00 0.00 0.00 61 1020.8
20260902110516 72 293 2.6 7.0 0.00 0.00 0.00 61 1020.8
20260902105517 72 225 4.3 9.6 0.00 0.00 0.00 62 1021.0
20260902104517 72 203 5.2 8.7 0.00 0.00 0.00 65 1021.1
20260902103516 72 180 6.1 10.4 0.00 0.00 0.00 65 1021.1
20260902102516 72 180 5.2 12.2 0.00 0.00 0.00 68 1021.2
20260902101516 71 180 3.5 7.0 0.00 0.00 0.00 69 1021.1
20260902100516 70 180 2.6 5.2 0.00 0.00 0.00 70 1021.4
20260902095516 70 180 5.2 8.7 0.00 0.00 0.00 71 1021.5
20260902094516 69 180 5.2 11.3 0.00 0.00 0.00 72 1021.6
20260902093516 68 180 5.2 13.9 0.00 0.00 0.00 72 1021.6
20260902092517 68 180 5.2 10.4 0.00 0.00 0.00 75 1021.7
20260902091517 67 203 1.7 4.3 0.00 0.00 0.00 78 1021.8
20260902090516 65 113 1.7 3.5 0.00 0.00 0.00 80 1022.0
20260902085516 64 203 0.9 5.2 0.00 0.00 0.00 82 1021.9
20260902084536 62 203 1.7 3.5 0.00 0.00 0.00 84 1022.0
20260902083516 61 135 0.9 1.7 0.00 0.00 0.00 85 1021.9
20260902082517 60 135 1.7 3.5 0.00 0.00 0.00 85 1021.9
20260902081516 59 0.0 0.9 0.00 0.00 0.00 88 1021.9
20260902080516 59 135 0.9 1.7 0.00 0.00 0.00 89 1021.9
20260902075516 58 180 0.9 3.5 0.00 0.00 0.00 89 1021.8
20260902074516 57 293 0.9 1.7 0.00 0.00 0.00 91 1021.9
20260902073516 55 0.0 1.7 0.00 0.00 0.00 93 1021.8
20260902072516 55 0.0 0.9 0.00 0.00 0.00 94 1021.8
20260902071536 54 0.0 0.9 0.00 0.00 0.00 95 1021.9
20260902070536 54 0.0 0.9 0.00 0.00 0.00 96 1021.8
20260902065516 53 0.0 0.9 0.00 0.00 0.00 96 1021.9
20260902064516 53 0.0 1.7 0.00 0.00 0.00 96 1021.7
20260902063516 53 113 0.9 1.7 0.00 0.00 0.00 96 1021.8
20260902062536 52 113 1.7 3.5 0.00 0.00 0.00 96 1021.7
20260902061516 52 270 0.9 2.6 0.00 0.00 0.00 96 1022.0
20260902060556 52 270 0.9 1.7 0.00 0.00 0.00 96 1022.1
20260902055516 52 0.0 0.0 0.00 0.00 0.00 96 1022.0
20260902054516 51 0.0 0.0 0.00 0.00 0.00 96 1021.9
20260902053516 51 0.0 0.0 0.00 0.00 0.00 96 1021.8
20260902052515 51 0.0 0.0 0.00 0.01 0.00 96 1021.8
20260902051536 51 0.0 0.9 0.00 0.01 0.00 96 1021.8
20260902050520 51 0.0 1.7 0.00 0.01 0.00 96 1021.7
20260902045516 51 0.0 1.7 0.00 0.01 0.00 95 1021.7
20260902044516 51 0.0 0.0 0.00 0.01 0.00 96 1021.6
20260902043516 51 0.0 0.0 0.00 0.01 0.00 96 1021.9
20260902042516 51 0.0 1.7 0.00 0.01 0.00 96 1022.0
20260902041516 51 0.0 1.7 0.00 0.01 0.00 96 1022.1
20260902040517 51 0.0 0.0 0.00 0.01 0.00 96 1022.1
20260902035517 51 0.0 0.0 0.00 0.01 0.00 96 1022.3
20260902034518 51 0.0 0.0 0.00 0.01 0.00 96 1022.1
20260902033516 51 0.0 0.0 0.00 0.01 0.00 96 1022.3
20260902032517 51 0.0 0.0 0.00 0.01 0.00 96 1022.2
20260902031517 51 0.0 0.0 0.00 0.01 0.00 96 1022.3
20260902030517 50 0.0 0.0 0.00 0.01 0.00 96 1022.3
20260902025517 50 0.0 0.0 0.00 0.01 0.00 96 1022.3
20260902024517 50 0.0 0.0 0.00 0.01 0.00 95 1022.2
20260902023537 50 0.0 0.0 0.00 0.01 0.00 95 1022.2
20260902022538 50 0.0 0.0 0.00 0.01 0.00 95 1022.2
20260902021518 50 0.0 0.0 0.00 0.01 0.00 95 1022.2
20260902020518 50 0.0 0.0 0.00 0.01 0.00 95 1022.1
20260902015517 50 0.0 0.0 0.00 0.01 0.00 95 1022.0
20260902014517 50 0.0 0.0 0.00 0.01 0.00 95 1022.2
20260902013523 50 0.0 0.0 0.00 0.01 0.00 94 1022.2
20260902012518 51 0.0 0.0 0.00 0.01 0.00 94 1022.1
20260902011517 51 0.0 0.0 0.00 0.01 0.00 95 1022.0
20260902010517 51 0.0 0.0 0.00 0.01 0.00 95 1022.2
20260902005537 51 0.0 0.0 0.00 0.01 0.00 94 1022.3
20260902004517 51 0.0 0.0 0.00 0.02 0.00 94 1022.3
20260902003518 52 225 0.9 1.7 0.00 0.02 0.00 94 1022.4
20260902002522 52 0.0 1.7 0.00 0.02 0.00 94 1022.5
20260902001517 52 0.0 1.7 0.00 0.02 0.00 94 1022.4
20260902000518 52 225 0.9 1.7 0.00 0.02 0.00 94 1022.5
20260901235517 52 0.0 0.0 0.00 0.02 0.00 94 1022.6
20260901234517 53 0.0 0.9 0.00 0.02 0.00 93 1022.4
20260901233517 53 0.0 0.9 0.00 0.02 0.00 93 1022.5
20260901232537 53 0.0 0.9 0.00 0.02 0.00 93 1022.4
20260901231516 54 0.0 0.9 0.00 0.02 0.00 93 1022.3
20260901230517 54 0.0 0.9 0.00 0.02 0.00 92 1022.2
20260901225557 54 0.0 0.0 0.00 0.02 0.00 92 1022.3
20260901224517 55 0.0 0.9 0.00 0.02 0.00 92 1022.3
20260901223517 55 0.0 0.9 0.00 0.02 0.00 92 1022.2
20260901222517 55 0.0 0.9 0.00 0.02 0.00 92 1022.2
20260901221537 55 0.0 0.9 0.00 0.02 0.00 92 1022.1
20260901220517 56 0.0 0.9 0.00 0.02 0.00 91 1022.1
20260901215516 56 225 0.9 1.7 0.00 0.02 0.02 91 1022.2
20260901214516 56 0.0 1.7 0.00 0.02 0.02 91 1022.2
20260901213636 57 0.0 1.7 0.00 0.02 0.02 91 1022.1
20260901212516 57 0.0 0.9 0.00 0.02 0.02 90 1022.1
20260901211516 57 0.0 0.9 0.00 0.02 0.02 89 1022.2
20260901210536 58 0.0 0.9 0.00 0.02 0.02 89 1022.2
20260901205515 58 248 0.9 2.6 0.00 0.02 0.02 88 1022.3
20260901204515 59 0.0 1.7 0.00 0.02 0.02 88 1022.2
20260901203517 60 0.0 0.9 0.00 0.02 0.02 87 1022.2
20260901202518 60 0.0 0.0 0.00 0.02 0.02 87 1022.3
20260901201517 60 0.0 0.0 0.00 0.02 0.02 85 1022.1
20260901200517 61 0.0 0.0 0.00 0.02 0.02 84 1022.1
20260901195538 62 0.0 0.9 0.00 0.02 0.02 83 1022.0